Other Surface Observations
Issued by NWS

Home | Current Version | Previous Version | Text Only | Print | Product List | Glossary On
Versions: 1 2 3 4 5 6 7 8 9 10 11 12 13 14 15 16 17 18 19 20 21 22 23 24 25 26 27 28 29 30 31 32 33 34 35 36 37 38 39 40 41 42 43 44 45 46 47 48 49 50
000
SXUS52 KTAE 301618
OSOTAE
OSOTAE
North Florida/South Alabama/Southwest Georgia Weather Roundup
National Weather Service Tallahassee Florida
1200 PM EDT SAT AUG 30 2014

Note: "fair" indicates few or no clouds below 12,000 feet with no
significant weather and/or obstructions to visibility.

!FLZ017-115-028-034-025-301700
...North Florida...

CITY           SKY/WX    TMP DP  RH WIND       PRES   REMARKS
TALLAHASSEE    PTSUNNY   89  73  59 VRB3      30.13S HX  97
APALACHICOLA   SUNNY     88  77  69 SE12      30.12S HX 100
PERRY          PTSUNNY   86  73  66 S3        30.15R HX  93
CROSS CITY       N/A     90  74  59 E6        30.13S HX  99
HOMERVILLE     FAIR      90  77  66 E3        30.16F HX 102
JACKSONVILLE   MOSUNNY   88  74  63 VRB5      30.14F HX  96
$$

!FLZ112-006-005-002-011-301700
...Florida Panhandle...

CITY           SKY/WX    TMP DP  RH WIND       PRES   REMARKS
MARIANNA       MOSUNNY   86  77  74 CALM      30.12S HX  97
BONIFAY        FAIR      90  76  63 SE6       30.13S HX 101
PANAMA CITY NW FAIR      90  77  65 SE10      30.11S HX 103
TYNDALL AFB    MOSUNNY   89  79  72 S10       30.12S HX 103
TYND DRONE APT FAIR      89  78  69 S12       30.10S HX 103
DE FUNIAK SPR  FAIR      87  76  70 SE3       30.12F HX  96
EGLIN AFB      PTSUNNY   90  78  66 S13       30.11S HX 103
DESTIN         SUNNY     91  78  65 SE10      30.10S HX 106
HURLBURT       PTSUNNY   90  73  58 SE13      30.10R HX  98
CRESTVIEW      PTSUNNY   91  75  59 SE10      30.12S HX 101
PENSACOLA      SUNNY     88  77  69 S12       30.10R HX 100
$$

!ALZ063-066-301700
...South Alabama...

CITY           SKY/WX    TMP DP  RH WIND       PRES   REMARKS
DOTHAN         MOSUNNY   86  73  65 VRB3      30.17S HX  93
OZARK CAIRNS   MOSUNNY   89  74  60 VRB6      30.13S HX  97
FT RUCKER HELI PTSUNNY   86  73  65 VRB5      30.12S HX  93
RUCKER HELI 3  FAIR      88  73  61 S5        30.15F HX  95
RUCKER HELI 2  FAIR      86  73  65 S5        30.13S HX  93
FLORALA APT    MOSUNNY   90  73  57 SE7       30.13F HX  98
ANDALUSIA      MOSUNNY   94  73  50 S7        30.11F HX 103
TROY           PTSUNNY   88  72  58 W3        30.13F HX  94
EUFALA         FAIR      90  73  57 VRB3      30.13S HX  98
MOBILE         PTSUNNY   88  77  69 SE15      30.09S HX 100
$$

!GAZ120>161-301700
...Southwest and South Central Georgia...

CITY           SKY/WX    TMP DP  RH WIND       PRES   REMARKS
THOMASVILLE    FAIR      88  72  58 W3        30.16S HX  94
BAINBRIDGE     PTSUNNY   91  79  66 N3        30.14F HX 107
MOODY AFB      NOT AVBL
VALDOSTA       PTSUNNY   88  73  62 SE5       30.15F HX  96
MOULTRIE       MOSUNNY   88  72  58 SW6       30.16S HX  94
BLAKELY        MOSUNNY   90  75  62 SE3         N/A  HX 100
ALBANY         PTSUNNY   86  73  65 CALM      30.16F HX  93
TIFTON         PTSUNNY   88  70  56 S5        30.15F HX  92
FITZGERALD     PTSUNNY   86  76  71 NE3       30.18F HX  95
CORDELE        FAIR      88  73  60 CALM      30.16F HX  95
AMERICUS       PTSUNNY   86  72  62 SE6       30.16F HX  92
$$

!GMZ750-755-770-775-301700
...Coastal and Buoy Obs...

STATION/POSITION TIME  TEMP    WIND        PRES    VSBY  WAVE
                       AIR SEA DIR/SP/G                  HT/PER
                 (UTC) (F)     (DEG/KT/KT) (MB)    (MI)  (FT/S)
KEATON BEACH     1600   83     190/ 10/ 11 1020.6S
CEDAR KEY        1600   84     160/  7/  8 1020.7F
C TOWER          1600   84     140/ 10/ 11 1020.0R
APALACHICOLA BUO 1600   85 86  120/ 12/ 14 1019.6S         2/ 3
PANAMA CITY BUOY 1511   85 86  120/ 14/ 16 1018.9          3/ 5
MOBILE BUOY      1500   85 85  140/ 17/ 19 1018.1
ORANGE BCH AL BU 1600   85 85  140/ 14/ 16 1018.6F         3/ 6
$$



USA.gov is the U.S. government's official web portal to all federal, state and local government web resources and services.